Showing default

BLACKJACK ACES-1, 56956

Orbit data source: Space-Track

BLACKJACK ACES-1, 56956 is a payload satellite owned by DARPA (US) in SSO that was launched on Mon, 12 Jun 2023 UTC via an FALCON 9 launch vehicle from the Air Force Western Test Range (AFWTR). Payload-class satellites include a variety of spacecraft equipped with specific instruments for various scientific and technological missions. These include communications satellites like Starlink; space stations such as the ISS; scientific satellites like the Hubble; Earth observation satellites from companies like Planet Labs, Umbra, and HawkEye 360; GPS; miniature CubeSats for education and research; and military/defense satellites.

Loading next visibility...
Identifier
56956, 2023-084AA
Orbit
SSO
Country
Flag of USUS
Related business
Manufacturer
BLCAN/LMSS
Mission
Operational Defense Communications
Bus & Motor
X-SAT, Unknown motor
Mass
~200 kg wet, ~200 kg dry
Launch date (UTC)
2023-06-12 (3 years ago)
Launch vehicle
FALCON 9
Launch site
Air Force Western Test Range (AFWTR)
Object type
Payload
Rocket body
Debris
Shape & HBR
Box, 3.6 m
Radar Cross Section
0.875 m², Large (>1 m²)

Expand to show TLE details & history
Last TLE update: 3 hours ago

TLE from 3 hours ago
0 BLACKJACK ACES-1
1 56956U 23084AA  26251.64062520  .00006100  00000-0  29719-3 0  9997
2 56956  97.6308  27.3984 0001337 105.2913 254.8469 15.18721596129560
Epoch: 2026-09-08T15:22Z
TLE epoch observation values (Epoch: 2026-09-08T15:22:30.017Z)
Latitude
0.00003°
Longitude
169.06919°
Altitude
513.026 km
Speed
7.607 km/s
True Right ascension
01h 49m 35s
True Declination
0° 00' 00"
Sunlit
Object was in full shadow at epoch
Visualization orbit readout
Latitude
Unknown
Longitude
Unknown
Altitude
Unknown
Speed
Unknown
Apparent Right ascension
Unknown
Apparent Declination
Unknown
Sunlit
N/A
Visualization observer readout
Local Sidereal Time
10:56:00
Azimuth
Unknown
Elevation
Unknown
Doppler factor
Unknown
Orbital elements
Apogee altitude
507.601 km
Perigee altitude
505.76 km
Semi-major axis
6,884.817 km
Eccentricity
0.00013
Inclination
97.6308°
RAAN
27.3984°
Arg. of periapsis
105.2913°
True anomaly
254.83211°
Mean anomaly
254.8469°
Eccentric anomaly
254.83951°
Mean motion
3.79931 °/min
Orbital period
94.75 mins
BSTAR
0.00029719
Loading maneuver chart data...
Computing Atmospheric mass density...

Documentation

Showing up to 5 results
|